sat.trackr.live / text

‹ back to catalog

FLOCK 4BE-6

NORAD 60516 · 2024-149BA

PAYLOAD ACTIVE UNKNOWN

§ Identity

Operator
Country
US
Launch date
2024-08-16
Launch site
AFWTR
Launch vehicle
Mass (kg)
RCS (m²)

Purposes: earth_obs

External: N2YO · Heavens-Above · Gunter

§ Orbital elements

Epoch: 2026-09-19T11:30:20.249856Z

Period
93.36 min
Inclination
97.3734°
Eccentricity
0.0002310
Mean motion
15.42453623 rev/d
Perigee alt
437.3 km
Apogee alt
440.4 km
Semi-major
6,817.0 km
B*
5.6310e-4
RAAN
346.9881°
Arg perigee
326.0052°
Mean anomaly
34.1047°
Rev number
11,679

§ Raw data

FLOCK 4BE-61 60516U 24149BA  26262.47940104  .00024327  00000+0  56310-3 0  99902 60516  97.3734 346.9881 0002310 326.0052  34.1047 15.42453623116794

JSON: /api/v1/satellites/60516 · /tle

For live sub-satellite position, see the globe view (requires WebGL).

§ Visibility from observer

Set your observer location to see the next 7 days of passes ≥ 10°. The values pass through the URL so the page stays shareable.

No JS? Fill the form by hand. The geolocation button needs JavaScript.